Miscellaneous Local Product
Issued by NWS North Platte, NE

Home | Current Version | Previous Version | Graphics & Text | Print | Product List | Glossary On
Versions: 1 2 3 4 5 6 7 8 9 10 11 12 13 14 15 16 17 18 19 20 21 22 23 24 25 26 27 28 29 30 31 32 33 34 35 36 37 38 39 40 41 42 43 44 45 46 47 48 49 50
000
AXUS43 KLBF 302010
MISLBF


WESTERN AND NORTH CENTRAL NEBRASKA HOURLY WEATHER ROUNDUP
NATIONAL WEATHER SERVICE NORTH PLATTE NE
300 PM CDT TUE JUN 30 2015

***STATIONS NOT REPORTING VARIABLES SUCH AS SKY/WEATHER OR
PRESSURE ARE PROVIDED BY THE NEBRASKA DEPARTMENT OF
ROADS...RAWS...AND APRS NETWORKS...AND ARE NOT UNDER
NATIONAL WEATHER SERVICE QUALITY CONTROL***

...OBSERVATIONS IN AND NEAR THE EASTERN PANHANDLE OF NEBRASKA...

CITY           SKY/WX    TMP DP  RH WIND       PRES   REMARKS
PINE RIDGE     PTSUNNY   89  60  37 W7        29.92F
CHADRON        MOSUNNY   93  64  38 NE5       29.90F HX  94
ALLIANCE       MOSUNNY   93  54  26 SW12      29.96F HX  91
SIDNEY         MOSUNNY   90  53  28 S3        30.01F
WHITECLAY        N/A     89  57  33 W3          N/A
CRESCENT LAKE    N/A     93  47  20 NW6G13      N/A
BIG SPRINGS      N/A     96  48  19 W9          N/A  HX  92
$$

...OBSERVATIONS IN NORTH CENTRAL NEBRASKA...

CITY           SKY/WX    TMP DP  RH WIND       PRES   REMARKS
VALENTINE      CLOUDY    83  65  54 E12       29.89F
THEDFORD       CLOUDY    93  60  32 SW8       29.91F HX  92
AINSWORTH      CLOUDY    82  65  57 SE13      29.90F
O`NEILL        CLOUDY    80  64  56 E12       29.92F
ORD            CLOUDY    89  67  47 SE9       29.87F HX  92
BROKEN BOW     PTSUNNY   91  66  43 SW9       29.89F HX  93
VALENTINE NWR    N/A     86  68  55 E9          N/A
SPRINGVIEW       N/A     80  65  59 E9G17       N/A
HALSEY           N/A     92  57  30 SW5G13      N/A  HX  90
BREWSTER         N/A     90  73  56 E9          N/A  HX  98
ROSE             N/A     93  79  62 E10         N/A  HX 110
NEWPORT          N/A     81  65  58 E9          N/A
SARGENT          N/A     90  63  40 CALM        N/A  HX  91
CHAMBERS         N/A     87  64  46 E6          N/A
EWING            N/A     79  66  64 E7G14       N/A
$$

...OBSERVATIONS IN SOUTHWEST NEBRASKA AND FAR NORTHEAST COLORADO...

CITY           SKY/WX    TMP DP  RH WIND       PRES   REMARKS
WRAY           FAIR      98  47  17 SW3G18    29.98F HX  94
HOLYOKE        FAIR      99  52  20 SW3       29.97F HX  96
IMPERIAL       SUNNY     98  50  19 SW13G21   29.94F HX  95
OGALLALA       MOSUNNY   95  52  23 W10       29.93F HX  92
NORTH PLATTE   MOSUNNY   94  60  32 SW10      29.90F HX  94
MCCOOK         SUNNY     98  52  21 W7        29.90F HX  95
LEXINGTON      MOSUNNY   96  56  25 W6        29.90F HX  94
PAXTON           N/A     96  60  30 NW6         N/A  HX  96
GOTHENBURG       N/A     95  55  25 SW3         N/A  HX  93
CALLAWAY         N/A     91  70  50 S10         N/A  HX  96
$$

...NORTH PLATTE AREA...

CITY           SKY/WX    TMP DP  RH WIND       PRES   REMARKS
AIRPORT        MOSUNNY   94  60  32 SW10      29.90F HX  94
DOWNTOWN         N/A     97  62  31 CALM        N/A  HX  98
HILLCREST        N/A     93  57  29 W8          N/A  HX  91
$$

...SOME WEATHER OBSERVATIONS FROM AROUND THE REGION...

CITY           SKY/WX    TMP DP  RH WIND       PRES   REMARKS
DENVER         MOSUNNY   92  43  18 VRB6      30.10F
LARAMIE        PTSUNNY   80  43  26 NW6       30.25F
CHEYENNE       LGT RAIN  83  41  22 NW10G41   30.16R
SCOTTSBLUFF    MOSUNNY   96  49  20 VRB3      29.96F HX  93
RAPID CITY     PTSUNNY   85  66  53 VRB3      29.90F
PIERRE         CLOUDY    76  66  71 E10       29.88S
WINNER         FAIR      81  59  47 SE16      29.90S
SIOUX FALLS    CLOUDY    75  65  70 S5        29.92S
OMAHA          LGT RAIN  77  65  66 CALM      29.90F
GRAND ISLAND   PTSUNNY   91  68  46 E10       29.89F HX  95
KANSAS CITY    CLOUDY    84  68  58 CALM      29.94S
WICHITA        MOSUNNY   98  58  26 SW9       29.91F HX  97
HAYS           MOSUNNY  100  50  18 SW10G23   29.90F HX  97
LIBERAL        SUNNY     93  55  27 S10G18    30.03F HX  91
GOODLAND       MOSUNNY   93  47  20 VRB6G18   29.99F
$$



USA.gov is the U.S. government's official web portal to all federal, state and local government web resources and services.